STARLINK-31545, 59400

Orbit data source: Space-Track

STARLINK-31545, 59400 is a payload satellite owned by SpaceX/Seattle (US) in LEO that was launched on Fri, 05 Apr 2024 UTC via an FALCON 9 launch vehicle from the Air Force Eastern Test Range (AFETR). Payload-class satellites include a variety of spacecraft equipped with specific instruments for various scientific and technological missions. These include communications satellites like Starlink; space stations such as the ISS; scientific satellites like the Hubble; Earth observation satellites from companies like Planet Labs, Umbra, and HawkEye 360; GPS; miniature CubeSats for education and research; and military/defense satellites.

Loading next visibility...
Identifier
59400, 2024-064C
Orbit
LEO
Country
Flag of USUS
Related business
Manufacturer
SpaceX/Seattle
Mission
Operational Commercial Communications
Bus & Motor
STARLINK V2M, Unknown motor
Mass
730 kg wet, ~700 kg dry
Launch date (UTC)
2024-04-05 (2 years ago)
Launch vehicle
FALCON 9
Launch site
Air Force Eastern Test Range (AFETR)
Object type
Payload
Rocket body
Debris
Shape & HBR
Box + 2 Pan, 17.7 m
Radar Cross Section
33.884 m², Large (>1 m²)

Expand to show TLE details & history
Last TLE update: 2 days ago

TLE from 2 days ago
0 STARLINK-31545
1 59400U 24064C   26171.11956581  .00012103  00000-0  44919-3 0  9994
2 59400  43.0047 197.4881 0001713 281.8945  78.1715 15.27538702124898
Epoch: 2026-06-20T02:52Z
TLE epoch observation values (Epoch: 2026-06-20T02:52:10.485Z)
Latitude
-0.00001°
Longitude
-113.89436°
Altitude
482.708 km
Speed
7.626 km/s
True Right ascension
13h 09m 57s
True Declination
0° 00' 00"
Sunlit
Object was in daylight at epoch
Visualization orbit readout
Latitude
Unknown
Longitude
Unknown
Altitude
Unknown
Speed
Unknown
Apparent Right ascension
Unknown
Apparent Declination
Unknown
Sunlit
N/A
Visualization observer readout
Local Sidereal Time
00:27:42
Azimuth
Unknown
Elevation
Unknown
Doppler factor
Unknown
Orbital elements
Apogee altitude
486.293 km
Perigee altitude
483.941 km
Semi-major axis
6,863.254 km
Eccentricity
0.00017
Inclination
43.0047°
RAAN
197.4881°
Arg. of periapsis
281.8945°
True anomaly
78.19071°
Mean anomaly
78.1715°
Eccentric anomaly
78.18111°
Mean motion
3.81723 °/min
Orbital period
94.31 mins
BSTAR
0.00044919
Loading maneuver chart data...
Computing Atmospheric mass density...
Loading historical data...
Loading historical data...
Loading historical data...
Loading historical data...
Loading historical data...
Loading historical data...
Loading historical data...

Documentation

Showing up to 5 results
|